CAPE
303 152 88 91 145 96 35 0 0 0 0 0 0 0 0 0 0 0 0 0 0 0 2 0 0 0 0 0 0 0 0 0 0 1 6 54 148 270 243 295 317 255 262
312 130 64 0 1 0 0 0 0 0 0 0 0 0 0 0 0 0 0 2 14 23 8 7 0 0 0 0 0 0 0 0 0 0 0 2 1 28 42 170 198 331 313
1 0 0 0 0 0 0 0 0 0 0 0 0 0 0 0 0 0 0 0 20 47 33 3 0 0 0 0 0 0 0 0 0 0 0 0 2 0 0 6 4 164 283
0 0 0 0 0 0 0 0 0 0 0 0 0 0 0 0 0 0 1 0 0 13 15 6 0 0 0 0 0 0 1 3 1 0 0 3 0 0 0 0 0 1 128
0 0 0 0 0 0 0 0 0 0 0 0 0 0 0 0 0 0 0 0 1 13 6 59 39 43 1 0 0 0 0 9 10 16 9 2 3 1 0 0 0 0 3
0 0 0 0 0 0 0 0 0 0 1 0 0 0 0 0 0 0 0 0 0 0 0 0 0 0 8 0 0 0 9 0 11 32 26 20 2 2 0 0 0 0 0
0 0 0 0 0 0 0 0 0 0 0 0 0 0 0 0 0 0 0 0 0 0 0 0 0 0 0 0 0 0 0 32 48 25 22 16 10 0 0 0 0 0 0
0 0 0 0 0 0 0 0 0 0 0 0 0 0 0 0 0 0 0 0 0 0 0 0 0 0 0 0 0 0 13 16 6 4 10 10 10 12 3 1 2 0 0
0 0 0 0 0 0 0 0 0 0 0 0 0 0 0 0 0 0 0 0 0 0 0 0 0 0 0 0 0 1 23 0 0 0 5 12 18 19 17 7 2 4 1
0 0 0 0 0 0 0 0 0 0 0 0 0 0 0 0 0 0 0 0 0 0 0 0 0 0 0 0 0 41 41 46 0 0 0 4 18 32 23 25 11 5 8
0 0 0 0 0 0 0 0 7 2 0 0 0 0 0 0 0 0 0 0 0 0 0 2 0 0 0 0 0 0 69 12 0 0 0 4 22 30 26 34 29 15 9
0 0 0 0 0 0 0 4 0 0 0 0 0 1 0 0 0 0 0 0 0 0 0 0 0 0 0 0 0 44 26 16 8 0 0 2 42 39 21 54 50 32 32
0 0 0 0 0 0 0 0 0 0 0 0 0 0 0 1 0 1 3 0 0 0 0 0 0 0 0 0 0 68 34 36 54 29 15 22 31 24 21 41 60 46 43
0 0 0 0 0 0 0 0 0 4 16 15 0 0 3 1 9 8 5 4 0 0 0 0 0 0 0 0 6 66 0 18 19 59 45 18 34 14 23 69 73 14 6
0 0 0 0 0 0 7 8 13 25 0 2 0 5 4 9 15 6 0 3 19 0 0 0 0 0 1 0 0 0 0 0 23 29 29 66 50 33 50 59 47 23 3
0 0 0 0 0 0 24 24 32 28 26 25 17 3 1 0 0 2 0 5 5 4 1 0 0 0 0 0 0 0 0 0 5 29 24 61 32 6 0 0 6 18 10
0 0 0 0 0 0 0 6 14 5 47 2 9 0 0 0 0 0 0 2 0 0 0 0 0 0 0 0 0 0 0 0 0 44 63 55 38 47 27 1 1 2 0
0 0 0 0 0 10 7 3 9 10 26 4 5 5 0 0 0 0 0 0 0 0 0 0 0 0 0 0 0 0 0 3 0 16 56 67 56 43 5 0 3 32 17
0 0 0 0 10 3 8 8 15 15 6 5 5 0 0 0 0 0 0 0 0 0 0 0 0 0 0 0 0 0 0 0 5 37 47 55 33 24 30 9 39 30 11
0 0 0 11 8 0 4 5 1 0 3 3 1 0 0 0 0 0 0 0 0 0 0 0 0 0 0 0 0 0 0 0 0 0 18 40 2 15 21 38 23 0 0
0 0 0 16 20 19 8 0 0 0 0 0 0 0 0 0 0 0 0 0 0 0 0 0 0 0 0 0 0 0 1 0 0 0 17 0 3 2 0 9 20 0 0
0 0 0 13 18 34 0 0 0 0 0 0 0 0 0 0 0 0 0 0 0 0 0 0 0 0 0 0 9 7 0 4 3 0 0 0 2 2 8 12 1 0 0
0 0 7 5 6 0 0 0 0 0 0 0 0 0 0 0 0 0 0 0 0 1 12 0 1 0 16 0 0 0 0 0 0 0 0 0 0 2 0 0 10 0 0
2 5 6 4 2 0 0 0 0 0 0 0 0 0 0 0 0 0 0 0 0 0 0 0 0 0 0 0 0 0 0 0 0 0 0 0 0 0 0 2 6 9 0
0 3 8 2 0 0 0 0 0 0 0 0 0 0 0 0 0 0 0 0 0 0 0 0 0 0 16 23 20 0 0 0 0 0 0 0 0 0 0 0 0 1 0
0 0 2 0 0 0 0 0 0 0 0 0 0 0 0 0 0 0 0 0 0 0 0 0 0 0 0 0 33 2 0 0 0 0 0 8 0 0 0 0 0 0 0
CIN
-62 -95 -115 -79 -58 -59 -58 0 0 0 0 0 0 0 0 0 0 0 0 -9 0 0 -16 0 0 0 0 0 0 0 0 0 0 0 -4 -2 -17 0 0 -2 -1 -3 -7
-64 -71 -100 0 -41 0 0 0 0 0 0 0 0 0 0 0 0 0 0 -18 -109 -87 -82 -83 0 0 0 0 0 0 0 0 0 0 0 0 -1 -7 -3 -1 -3 -1 -1
-17 0 0 0 0 0 0 0 0 0 0 0 0 0 0 0 0 0 0 0 -129 -141 -116 -109 0 0 0 0 0 0 0 0 0 0 0 0 0 0 0 0 0 -1 0
0 0 0 0 0 0 0 0 0 0 0 0 0 0 0 0 0 0 -20 0 0 -49 -116 -106 0 0 0 0 0 0 0 0 0 0 0 0 0 0 0 0 0 0 0
0 0 0 0 0 0 0 0 0 0 0 0 0 0 0 0 0 0 0 0 -7 -38 -53 -42 -23 -16 -9 0 0 0 0 0 0 0 0 0 0 0 0 0 0 0 0
0 0 0 0 0 0 0 0 0 0 -7 -3 0 0 0 0 0 0 0 0 0 0 0 0 0 0 -4 0 -4 0 0 0 0 0 0 0 0 0 0 0 0 0 0
0 0 0 0 0 0 0 0 0 0 0 0 0 0 0 0 0 0 0 0 0 0 0 0 0 0 0 -1 0 0 0 0 0 0 0 0 0 0 0 0 0 0 0
0 0 0 0 0 0 0 0 0 0 0 0 0 0 0 0 0 0 0 0 0 0 0 0 0 0 0 0 0 0 0 -1 -4 0 0 0 0 0 0 0 0 0 0
0 0 0 0 0 0 0 0 0 -1 0 0 0 0 0 0 0 0 0 0 0 0 0 0 0 0 0 0 0 -1 -6 0 0 -1 0 0 0 0 0 0 0 0 0
0 0 0 0 0 0 0 0 0 0 0 0 0 0 0 0 0 0 0 0 0 0 0 0 0 0 0 0 0 -12 -27 -29 -4 0 0 0 0 0 0 0 0 0 0
0 0 0 0 0 0 0 0 -10 -31 0 0 0 0 0 0 0 0 0 0 0 0 0 -46 0 0 0 0 0 -19 -21 -53 -2 0 0 0 0 0 0 0 0 0 0
0 0 0 0 0 0 0 -12 0 0 0 0 0 -14 0 0 0 -4 0 0 0 0 0 0 0 0 0 0 0 -8 -26 -31 -23 -5 -5 0 0 0 0 0 -7 0 0
0 0 0 0 0 0 0 0 0 0 0 0 0 0 0 -15 0 -11 -16 0 0 0 0 0 0 0 0 0 0 -10 -7 -13 -5 -2 -2 0 0 0 0 0 0 0 0
0 0 0 0 0 0 0 0 0 -18 -12 -10 -13 -22 -10 -20 -8 -18 -15 -16 0 0 0 0 0 0 0 -23 -25 -8 0 -6 -6 -3 -2 -5 0 -1 -1 0 0 0 -1
0 0 0 0 0 -2 -11 -19 -22 -10 -3 -41 0 -52 -1 -22 -15 -20 -2 -24 -14 0 0 0 0 0 -23 0 -6 0 0 0 -1 -1 -6 -2 -3 -2 -2 0 -7 -14 -15
0 0 0 0 0 -1 -8 -10 -7 -2 -4 -18 -8 -8 -9 0 0 -15 0 -30 -26 -19 -9 0 0 -8 0 0 0 0 0 0 -6 -2 -6 -4 -16 -15 0 0 -14 -39 -44
0 0 0 0 0 0 -2 -10 -9 -12 -11 -26 -11 -2 0 0 0 0 0 -6 -4 -5 0 0 0 0 0 0 0 0 0 0 0 -1 -1 -9 -15 -13 -24 -19 -10 -57 -50
0 0 0 0 0 -5 -12 -16 -9 -9 -22 -65 -62 -22 0 0 0 0 0 0 0 0 0 0 0 0 0 0 0 0 0 -1 0 0 -1 -9 -6 -28 -34 -36 -33 -29 -55
0 0 0 -1 -4 -16 -10 -8 -5 -12 -17 -9 -9 0 0 0 0 0 0 0 0 0 0 0 0 0 0 0 0 0 -1 0 -1 -1 0 -5 -3 0 -2 -29 -18 -20 -34
0 0 0 -11 -11 0 -5 -6 -6 0 -25 -15 -20 0 0 0 0 0 0 0 0 0 0 0 0 0 0 0 0 -1 0 0 0 0 -6 -6 -25 0 -17 -17 -25 0 0
0 0 -1 -8 -7 -11 -5 0 0 0 0 0 0 0 0 0 0 0 0 0 0 0 0 0 0 0 0 0 0 0 -2 0 0 0 -23 0 -10 0 0 -49 -21 0 0
0 0 -2 -7 -9 -7 0 0 0 0 0 0 0 0 0 0 0 0 0 0 0 0 0 0 0 0 0 0 -1 -3 -1 -1 0 0 -2 0 -9 0 0 -3 -19 0 0
-3 -4 -6 -4 -10 0 0 0 0 0 0 0 0 0 0 0 0 0 0 0 0 0 -1 -11 -3 -1 -1 0 0 0 0 0 0 0 0 0 0 -1 -1 -1 -24 0 0
-11 -12 -8 -7 -13 0 0 0 0 0 0 0 0 0 0 0 0 0 0 0 0 0 0 -3 0 0 0 0 0 0 0 0 0 0 0 0 0 0 0 -10 -26 -30 0
0 -11 -9 -8 -1 0 0 0 0 0 0 0 0 0 0 0 0 0 0 0 0 0 0 0 0 0 0 0 -1 0 0 -1 0 0 0 -1 0 0 0 0 0 -10 0
0 0 -15 0 0 0 0 0 0 0 0 0 0 0 0 0 0 0 0 0 0 0 0 0 0 0 0 0 0 -1 0 0 0 0 0 -12 0 0 0 0 0 0 0
Wind_Speed
3 2 2 2 3 4 5 6 5 6 6 7 6 5 5 5 5 2 1 5 4 3 5 9 11 13 14 15 17 18 18 18 18 18 18 19 17 17 10 8 8 8 7
4 2 3 4 4 5 5 5 6 5 5 5 5 5 5 6 6 5 2 2 6 5 7 10 11 11 12 13 14 17 18 18 18 18 18 18 19 19 19 15 10 10 10
5 5 3 3 4 5 6 5 5 4 3 5 6 6 5 5 6 7 5 4 5 8 8 10 9 9 10 11 13 15 16 17 19 20 19 18 18 19 20 19 18 14 12
3 2 3 4 5 3 2 0 3 4 5 5 4 5 4 6 9 12 5 4 4 0 6 9 6 7 5 9 12 15 17 18 15 20 20 19 20 19 20 21 21 19 17
5 4 4 5 5 5 4 4 4 4 4 5 7 6 4 5 7 9 8 7 6 4 3 8 3 9 7 15 15 18 20 18 20 21 17 21 23 22 20 21 21 20 19
7 6 3 3 2 3 4 4 4 3 3 3 7 9 3 3 6 7 6 10 7 7 5 5 5 5 13 18 18 18 20 21 21 18 20 22 25 24 23 22 22 22 20
5 3 5 5 5 5 4 5 4 4 4 4 4 5 4 4 6 4 5 5 6 8 7 5 4 3 4 14 17 20 20 20 18 19 20 23 23 26 25 24 22 23 22
6 5 4 4 5 4 5 4 5 4 2 4 3 5 5 4 3 7 5 5 6 5 6 7 5 4 4 3 6 16 18 14 17 18 20 23 24 25 27 26 24 23 23
5 5 5 4 4 3 3 4 4 5 3 4 4 2 5 4 5 4 6 5 7 5 5 5 6 4 3 3 6 5 9 8 14 18 21 23 25 25 27 28 26 23 23
7 7 6 6 6 5 5 4 4 2 3 3 4 5 4 4 6 8 2 4 6 7 6 4 5 5 4 3 6 7 6 5 10 16 22 25 24 25 27 28 27 25 23
5 5 6 7 6 4 5 5 5 6 5 5 4 4 4 3 4 4 8 4 5 5 6 3 4 4 5 5 4 5 7 8 12 19 24 24 24 25 27 28 25 24 24
3 5 6 5 5 5 5 4 7 7 5 4 3 3 4 3 3 3 5 5 7 5 4 4 4 4 4 5 10 14 10 12 14 19 21 24 21 24 27 28 25 24 24
3 4 4 4 4 5 6 5 4 3 3 2 3 4 2 3 2 3 3 7 6 7 4 4 4 4 6 4 5 10 14 12 12 17 22 24 22 24 26 26 24 22 21
2 4 3 5 6 5 2 4 3 3 4 4 4 5 0 3 3 3 3 4 7 7 5 7 4 4 4 4 7 13 7 13 16 18 19 23 24 21 22 22 20 20 20
3 4 4 6 6 1 1 1 4 5 2 2 3 5 3 2 2 3 4 3 3 8 10 7 7 6 4 4 7 8 8 15 20 20 21 22 21 17 17 19 17 18 18
3 4 5 5 6 5 5 5 4 3 4 2 3 4 5 5 5 4 3 4 5 7 11 6 6 5 7 9 10 10 11 21 20 21 23 22 12 11 12 16 16 14 17
4 5 5 5 5 6 6 5 5 5 2 3 4 3 4 6 3 4 4 4 4 5 8 8 8 6 9 9 10 9 11 11 11 17 19 12 11 12 15 16 16 14 15
3 4 5 5 6 5 5 6 6 5 6 7 8 6 6 6 7 6 4 6 6 8 8 12 9 8 8 10 9 10 9 10 10 15 21 17 16 14 15 18 14 13 11
3 4 5 6 4 4 4 6 6 2 3 4 2 4 5 5 4 4 5 6 7 8 8 8 10 7 6 7 9 10 9 10 9 19 17 9 12 21 20 18 8 8 8
3 5 6 6 3 3 5 6 5 7 5 4 3 4 5 4 5 4 5 5 6 6 7 7 8 9 6 8 7 9 8 7 8 10 11 11 12 17 25 20 1 6 8
4 6 6 6 3 1 3 5 5 5 6 6 5 5 4 2 2 3 2 4 4 4 6 7 8 8 8 6 8 7 8 9 10 8 4 7 5 8 9 12 6 6 8
6 5 5 5 4 3 10 9 4 3 5 6 5 5 4 7 6 10 7 6 8 7 9 9 10 10 10 7 6 7 7 8 8 4 8 7 5 7 8 7 6 4 5
6 5 6 4 3 8 11 10 6 0 5 5 5 4 5 5 6 6 8 12 12 17 17 10 10 8 10 7 7 9 10 9 9 9 7 9 4 7 9 2 5 4 3
5 4 5 5 2 7 11 10 6 2 6 5 4 5 4 3 6 4 5 6 8 9 10 7 6 7 8 7 9 9 10 11 9 7 6 8 4 7 8 2 6 7 5
5 5 4 3 6 8 11 9 4 2 4 4 4 5 3 2 5 6 5 7 9 9 11 19 21 21 18 19 16 8 8 7 8 7 5 5 4 7 3 5 4 9 7
5 4 2 5 8 9 11 9 4 0 3 3 4 5 3 5 3 5 3 5 8 8 9 11 10 11 12 11 15 6 6 7 6 6 4 2 5 5 4 3 2 2 2
Wind_Direction
91 37 23 306 293 343 20 19 24 22 16 1 0 353 358 324 312 310 63 123 104 83 62 54 44 35 29 23 15 9 8 7 7 4 2 2 356 348 312 290 284 278 267
95 37 30 23 13 42 18 18 17 12 351 344 327 349 343 327 326 334 348 107 164 119 98 87 68 42 24 17 11 3 359 359 358 357 355 354 353 351 354 338 294 279 271
38 50 41 14 25 21 27 21 359 337 336 333 340 346 330 338 344 331 328 301 152 151 125 95 76 52 31 18 5 357 349 346 345 345 346 346 347 345 341 344 348 313 280
116 140 58 45 19 337 311 4 289 6 347 340 320 309 333 4 339 312 314 347 334 142 138 133 113 77 55 20 359 345 336 331 338 335 336 341 338 337 336 334 332 332 328
68 26 81 53 14 322 357 9 19 359 338 328 315 326 21 347 339 332 327 313 307 39 56 156 16 32 60 10 0 338 329 339 331 323 330 332 331 329 330 326 324 324 324
52 27 61 88 229 321 9 6 342 305 284 339 331 318 339 6 321 318 353 14 360 358 17 20 30 22 8 356 353 342 344 323 320 334 333 332 326 323 320 318 316 315 316
66 48 34 8 355 11 1 339 306 333 335 332 332 328 329 328 337 339 360 349 338 337 346 31 43 32 11 8 357 341 325 321 340 330 327 324 323 319 315 312 311 309 307
33 25 21 353 5 349 329 330 351 319 323 5 339 325 321 325 302 346 335 341 344 340 359 345 360 30 45 43 354 320 331 344 330 329 325 322 319 317 313 309 306 304 302
27 9 7 0 341 316 328 329 322 309 10 353 327 319 334 326 332 339 336 319 334 336 326 338 334 17 19 32 327 327 334 356 336 328 324 321 316 315 313 306 303 301 298
25 8 10 21 3 344 333 313 332 359 357 339 346 5 357 351 333 321 305 345 331 337 326 339 349 2 344 310 279 282 210 26 356 334 324 317 313 311 313 305 298 298 296
29 18 20 14 343 328 310 312 311 30 39 30 10 349 342 310 313 323 322 334 335 321 319 325 348 334 324 327 321 315 360 2 340 327 318 312 306 310 312 305 295 297 297
6 19 23 334 326 312 315 21 55 54 38 21 341 325 296 326 319 321 313 316 304 299 305 329 333 321 340 337 328 324 348 326 319 316 316 312 303 309 310 306 302 301 300
357 12 347 336 326 323 54 39 44 15 34 320 309 305 320 328 325 316 330 310 299 308 303 310 323 333 316 311 296 324 321 316 323 322 315 305 300 304 305 305 301 304 307
331 327 343 324 308 45 11 37 19 313 263 250 248 265 297 291 292 311 291 304 307 301 314 307 281 300 289 279 328 340 330 322 322 312 311 302 293 291 299 302 301 304 308
306 351 339 313 309 244 193 220 242 248 271 316 45 291 240 280 304 316 311 307 285 313 301 300 301 280 311 334 332 325 323 317 314 305 299 292 282 281 292 297 300 305 312
317 311 316 314 321 309 222 240 267 292 299 258 285 323 20 358 343 279 323 304 296 289 293 302 305 326 2 336 327 324 315 312 307 299 293 293 267 281 301 306 303 308 310
299 317 315 313 308 306 312 330 318 302 272 286 278 10 321 259 285 318 298 296 297 305 307 311 315 339 334 324 318 308 300 298 289 297 299 259 258 291 300 300 301 307 311
304 313 305 298 284 293 7 343 328 328 6 21 348 358 350 345 325 331 331 338 342 336 319 313 323 320 317 306 298 302 298 300 295 294 299 340 287 264 273 285 295 307 305
328 303 301 283 295 352 329 273 267 0 4 256 287 4 318 325 325 6 3 342 332 325 331 319 313 317 308 321 314 304 303 298 303 300 301 298 295 297 283 266 293 337 349
323 296 278 277 319 306 316 326 17 20 344 329 314 309 308 358 37 360 338 329 318 323 319 311 309 310 311 311 306 309 306 307 313 310 316 329 333 304 285 267 200 357 355
270 258 266 268 251 310 305 52 28 0 344 325 317 326 347 61 211 120 277 279 318 299 302 298 299 301 299 304 304 317 318 319 306 292 345 318 329 312 291 313 163 34 359
245 259 279 282 269 194 142 116 92 10 310 304 328 334 342 318 124 208 297 328 267 276 283 281 283 286 295 311 320 311 320 326 316 317 330 310 324 324 302 253 153 94 352
240 245 253 272 267 120 144 130 116 345 298 296 323 340 331 325 37 22 355 337 315 301 297 292 288 285 296 289 313 313 308 299 297 300 303 303 304 300 282 313 181 173 65
246 248 247 258 231 133 156 143 141 261 272 311 350 314 309 13 72 22 339 313 304 307 303 315 341 317 300 303 291 290 291 293 286 283 282 289 303 289 299 299 206 184 126
274 252 249 203 117 139 159 154 158 301 303 321 315 305 293 298 99 5 335 311 306 308 315 337 322 312 306 296 285 277 274 283 288 291 288 294 304 289 271 280 272 210 157
303 288 353 78 93 142 166 163 169 25 303 295 301 305 88 77 36 325 299 296 301 300 326 311 308 300 303 299 300 309 274 267 279 289 261 347 318 332 324 273 310 320 159